Wind_Speed
22 22 21 22 23 16 11 9 8 8 8 8 8 7 6 5 4 4 4 4 4 4 3 3 2 1 1 1 0 1 1 1 2 2 2 3 4 4 5 4 4 4 4 4 4 4 5 5 4
22 19 23 24 18 12 11 11 10 9 8 8 8 7 7 6 5 4 4 4 3 3 2 2 1 1 0 1 1 1 1 1 2 2 2 2 3 3 4 4 4 4 4 3 4 4 4 4 4
20 20 24 20 12 11 11 11 11 10 10 8 8 8 7 7 6 4 4 3 3 2 2 1 1 0 1 1 2 2 2 1 1 2 2 2 2 3 3 3 3 3 3 3 3 4 4 4 3
20 25 23 15 12 12 11 11 10 9 9 9 9 9 8 8 7 5 4 3 2 2 1 0 0 1 1 2 3 2 2 1 1 2 2 1 2 2 2 2 3 3 3 3 3 3 3 3 3
22 23 18 13 12 11 11 11 11 11 10 10 9 10 10 9 8 6 5 4 3 2 1 1 1 2 2 3 3 3 2 2 2 1 1 1 1 1 2 2 3 3 3 3 3 3 2 2 3
20 20 14 11 10 10 10 11 10 10 10 10 10 10 10 10 9 7 6 6 5 4 2 2 3 3 3 4 4 3 3 3 2 2 2 1 1 1 1 1 2 2 3 3 3 3 3 3 3
15 15 12 10 10 10 10 9 9 10 10 10 10 10 10 10 9 8 8 7 6 6 4 3 3 3 4 4 4 4 4 3 3 2 2 2 1 1 1 1 1 2 3 3 3 3 3 4 4
14 13 12 8 7 8 9 9 10 11 12 12 13 13 12 11 10 9 9 8 8 7 5 4 4 4 4 5 5 5 4 4 3 3 3 2 2 1 1 1 1 2 2 3 3 3 4 4 4
12 12 10 5 5 6 7 8 9 10 10 11 13 14 13 12 11 11 10 10 9 8 6 6 4 4 4 5 5 5 5 4 4 4 3 3 2 2 1 1 1 2 2 3 3 3 3 4 4
8 9 7 3 3 5 8 9 10 10 9 11 13 14 14 13 13 12 11 11 10 9 8 6 5 4 5 5 5 5 5 5 5 5 4 4 3 2 2 1 1 2 2 2 3 3 3 3 4
4 4 4 2 3 4 6 8 9 11 12 13 14 14 14 13 14 13 13 12 11 10 10 8 6 5 5 5 5 5 6 6 6 6 5 5 4 3 3 2 1 2 2 2 2 2 3 3 4
2 3 2 1 4 5 6 7 8 9 12 14 15 15 14 14 14 14 14 13 12 12 11 10 7 7 6 5 5 5 6 6 6 6 5 5 4 3 2 2 2 2 2 2 2 2 3 3 3
1 2 1 2 4 5 5 6 6 9 12 14 14 15 15 15 15 15 14 14 13 12 11 10 9 8 7 5 5 5 6 6 6 5 5 4 4 3 3 2 2 2 2 2 2 2 3 3 3
3 1 1 3 4 6 7 8 8 10 12 14 14 15 15 15 16 16 15 14 14 13 12 10 10 9 8 6 5 6 5 6 6 5 5 4 4 3 3 3 3 3 3 2 2 3 3 2 3
3 1 2 4 6 7 7 7 9 11 13 14 15 15 15 15 16 16 16 15 14 14 12 11 11 10 9 7 6 5 5 5 5 5 5 4 4 4 4 4 3 3 3 3 2 2 2 2 2
2 3 6 7 8 8 9 10 11 13 14 14 15 16 15 16 16 16 16 15 14 14 12 12 11 10 9 8 6 5 5 5 5 5 5 5 4 5 5 4 4 4 4 3 2 2 2 2 2
3 4 4 7 10 9 7 8 12 13 13 14 15 15 16 16 16 16 16 16 15 14 13 12 11 10 9 8 6 4 5 4 5 6 6 6 5 5 5 4 5 4 4 4 3 3 2 2 2
1 3 5 6 10 9 7 8 10 13 13 13 15 15 15 16 16 16 17 17 16 15 15 14 12 10 9 7 6 5 4 4 4 5 6 7 6 6 6 5 5 5 5 4 4 3 3 2 2
6 7 7 7 10 8 7 8 10 12 13 14 16 16 16 16 16 16 16 17 16 16 16 14 14 11 9 7 6 5 5 4 4 5 6 6 6 7 7 6 5 5 5 5 5 4 4 4 4
8 6 6 6 10 8 7 7 10 12 15 15 16 17 16 15 16 15 16 16 17 17 16 15 13 11 9 7 6 5 5 5 4 5 6 6 6 7 7 6 6 6 6 6 6 5 5 5 5
8 7 8 8 8 7 8 10 13 13 13 15 15 17 16 16 16 16 16 17 17 17 16 15 12 10 6 6 5 5 4 4 4 5 6 6 6 7 7 8 7 7 7 7 7 6 6 7 7
8 8 9 8 7 7 6 10 15 16 15 14 15 16 18 17 16 16 17 17 16 17 16 13 11 8 4 4 5 4 4 5 5 5 6 6 7 7 8 9 9 9 8 8 8 8 8 8 8
10 10 10 8 7 7 6 7 13 15 15 15 17 16 18 17 16 16 16 16 16 16 14 11 10 6 4 2 3 4 4 5 5 5 6 7 7 7 8 8 9 10 10 9 9 9 10 10 10
12 11 9 7 7 9 6 6 10 14 16 16 18 17 17 17 16 15 15 15 15 15 13 11 9 6 4 3 3 4 4 5 5 5 6 7 7 7 7 7 9 10 10 10 10 11 10 11 12
12 10 8 7 9 9 6 8 12 16 17 17 18 17 15 15 15 15 15 15 15 15 13 11 9 6 5 4 3 3 4 5 5 6 7 7 8 8 8 9 10 10 10 11 12 12 12 12 12
13 12 9 7 8 9 9 9 13 16 17 16 16 16 15 15 15 14 14 14 14 14 13 11 9 7 5 4 4 4 5 5 5 6 7 7 8 9 9 10 10 11 11 11 12 11 12 12 13
15 13 11 12 11 11 12 12 16 18 15 15 15 15 15 15 13 13 13 14 14 13 11 10 8 7 6 6 5 4 4 5 5 5 6 7 7 8 9 10 11 11 12 12 12 12 13 14 14
16 15 14 14 14 13 12 13 16 16 15 16 16 15 15 14 13 14 13 13 13 12 10 9 9 8 8 6 5 4 5 5 5 5 6 7 8 8 8 10 11 12 12 12 14 15 15 15 15
17 17 16 16 15 12 13 16 16 17 17 17 16 15 14 14 14 14 13 13 13 11 10 10 10 9 9 7 6 6 6 6 6 7 7 8 9 9 9 10 11 12 13 14 16 16 15 16 17
18 18 18 18 17 15 14 16 17 16 17 17 16 15 15 14 14 14 14 13 12 11 11 11 11 10 10 9 8 7 7 7 7 8 9 9 10 11 11 11 12 13 13 14 15 15 15 17 18
Wind_Direction
84 83 79 70 63 55 55 54 46 46 52 57 58 60 63 62 58 52 56 68 76 81 85 95 104 107 98 120 182 184 198 183 168 156 141 128 122 118 108 98 93 94 94 86 83 84 89 88 89
89 84 74 66 62 42 42 44 42 42 45 47 49 48 53 56 58 55 56 61 67 73 76 72 79 87 303 274 263 262 248 218 188 176 153 133 123 119 110 99 91 93 92 86 83 86 93 94 92
90 80 70 61 50 42 42 43 36 38 42 41 43 38 42 47 51 47 48 55 61 67 70 58 48 327 298 281 279 265 251 237 207 190 177 150 131 125 116 100 96 95 95 89 90 95 97 96 91
86 73 70 58 49 41 36 38 36 33 35 34 36 31 37 40 41 39 38 47 54 54 55 32 329 301 293 288 289 278 257 258 237 223 205 177 149 137 121 109 111 107 103 97 94 96 101 94 86
83 77 72 56 42 40 32 35 31 27 30 29 28 24 28 32 30 31 33 37 39 24 353 307 289 284 281 277 279 276 263 258 258 251 226 199 160 142 121 119 119 114 105 97 97 100 103 82 79
79 76 67 56 39 38 27 28 28 25 25 23 23 17 20 27 26 24 22 22 23 8 338 301 287 280 272 271 272 269 265 264 266 256 239 223 207 156 123 112 101 102 104 98 98 96 92 90 89
82 83 78 54 34 32 24 23 19 18 18 19 17 16 19 25 24 21 19 16 13 6 358 317 289 280 272 268 262 262 258 260 253 247 237 237 248 250 169 133 106 110 110 99 101 98 94 94 90
86 81 77 57 27 28 19 17 13 15 14 13 11 13 16 21 20 15 11 7 3 358 1 340 308 289 275 268 266 269 254 255 250 247 239 237 235 231 174 144 129 121 117 105 104 96 99 101 97
89 80 76 54 26 19 4 14 17 8 12 11 11 11 12 14 14 9 4 2 360 356 350 342 323 301 281 270 266 265 255 255 249 244 242 236 229 224 206 185 153 129 113 103 101 101 104 104 102
87 72 68 46 17 14 360 8 14 357 355 6 8 6 9 10 10 7 2 360 357 353 350 341 331 317 296 279 268 261 249 249 247 241 239 232 231 234 230 205 166 148 123 113 107 103 106 107 107
90 82 80 52 355 5 8 1 3 347 347 353 360 359 0 3 6 5 3 2 359 355 352 348 337 327 308 290 278 259 251 251 247 237 228 229 230 235 232 195 179 169 154 139 121 117 113 106 109
102 99 102 38 340 360 4 0 355 347 345 349 353 351 355 358 1 1 360 358 358 356 352 351 341 334 319 298 277 258 255 257 245 228 223 232 237 231 218 210 206 194 177 165 146 130 125 116 111
88 89 78 354 351 346 358 356 342 349 344 349 351 350 353 355 356 355 357 353 352 352 349 347 344 336 325 309 283 270 260 255 236 229 223 230 230 219 218 208 192 198 190 182 157 142 134 117 109
166 160 36 349 337 345 342 341 346 349 342 343 349 349 352 353 353 353 354 349 345 345 345 344 339 333 327 315 288 284 257 245 226 227 224 227 228 220 209 202 202 207 200 182 160 151 143 128 119
139 86 21 345 335 332 333 341 344 344 338 339 344 347 350 351 350 350 349 347 344 339 339 334 331 332 327 316 294 282 265 243 225 223 222 225 229 216 208 211 209 214 204 193 180 165 157 139 134
71 28 3 327 318 323 338 332 332 338 336 338 341 346 348 348 348 348 347 345 341 336 334 331 325 325 320 311 296 281 265 240 226 222 221 223 227 218 217 213 215 219 213 210 206 190 190 176 155
17 352 332 302 307 313 320 320 324 332 331 334 340 345 346 346 348 348 346 343 338 334 330 327 320 316 315 305 295 279 251 236 226 221 222 221 225 222 222 214 220 224 222 222 227 216 203 194 200
212 245 265 274 285 297 309 307 314 317 326 330 334 339 342 344 346 345 345 343 339 335 332 327 320 310 311 301 285 258 235 234 223 223 225 221 225 228 228 228 226 225 225 226 235 228 227 226 230
227 217 226 253 275 292 302 298 306 313 325 328 328 334 337 342 343 343 342 342 340 337 336 331 327 314 304 294 279 257 232 230 226 222 222 228 229 229 231 234 231 230 229 235 240 237 240 244 249
235 232 243 267 284 295 304 306 306 307 321 324 327 332 335 340 343 342 341 342 340 339 337 334 329 323 303 282 269 251 235 226 233 228 229 233 232 226 226 236 240 241 242 242 243 241 245 251 255
236 244 251 251 276 301 317 313 302 300 314 322 323 326 332 337 340 340 340 341 341 342 339 334 332 325 305 266 250 244 237 237 240 237 234 231 230 229 237 243 244 248 250 249 249 250 253 254 257
239 251 259 263 277 288 286 295 304 305 315 323 325 324 328 332 335 339 338 339 342 343 341 339 338 333 311 262 246 246 246 249 249 244 236 235 238 243 246 247 246 247 249 250 251 256 257 257 260
236 246 257 270 276 277 278 289 301 302 305 317 321 321 322 328 334 336 336 338 339 342 344 343 341 338 335 298 270 260 257 254 258 248 238 238 241 246 251 249 246 246 248 250 251 256 259 259 261
242 247 255 273 286 281 274 277 279 283 292 306 312 316 319 325 330 331 333 336 338 341 343 346 345 340 332 305 277 268 268 263 259 250 248 246 247 251 254 248 249 249 250 251 255 259 264 262 263
242 244 254 276 291 293 277 271 258 276 287 296 305 314 318 323 328 328 330 334 338 340 339 339 339 340 342 331 305 288 282 277 264 258 260 259 256 256 254 250 251 255 261 261 259 262 267 266 267
241 236 233 245 276 293 283 255 267 283 293 301 307 312 317 324 327 329 329 333 337 339 338 338 339 341 340 333 319 305 289 284 275 267 267 265 266 266 262 255 254 259 266 268 266 266 269 269 270
238 236 235 245 259 275 277 273 281 288 299 307 311 314 318 323 326 330 332 335 338 338 340 342 342 343 334 320 309 298 289 281 276 274 272 271 275 274 266 260 260 264 268 269 269 268 273 273 275
233 234 233 236 246 259 271 267 265 277 293 304 311 313 316 320 323 326 330 333 336 339 340 341 341 338 332 322 312 298 287 278 278 284 284 282 281 276 273 270 269 270 271 273 273 273 273 273 275
239 234 233 233 235 246 270 280 274 279 288 300 308 310 314 320 322 324 327 333 335 338 341 340 339 335 332 323 315 308 300 293 289 289 289 287 286 286 283 280 277 277 277 279 280 278 278 277 276
240 240 237 236 237 236 252 277 277 280 289 295 299 304 312 317 321 326 328 331 331 332 333 333 335 335 333 327 317 308 301 298 297 294 293 291 289 289 289 286 285 286 286 285 282 279 280 280 278
Height
5908 5908 5908 5907 5907 5909 5909 5908 5907 5905 5904 5903 5901 5900 5899 5899 5899 5900 5897 5896 5896 5896 5896 5897 5897 5897 5898 5898 5898 5898 5898 5898 5898 5898 5898 5898 5898 5898 5898 5898 5898 5898 5898 5898 5898 5898 5898 5898 5898
5911 5912 5909 5909 5911 5912 5911 5910 5909 5907 5906 5905 5903 5902 5901 5900 5899 5898 5897 5897 5897 5897 5897 5898 5898 5898 5898 5898 5899 5899 5899 5899 5899 5899 5899 5899 5899 5899 5899 5899 5899 5899 5899 5898 5898 5898 5898 5898 5898
5913 5912 5911 5914 5916 5915 5914 5913 5911 5910 5908 5906 5905 5904 5903 5901 5900 5899 5898 5898 5898 5898 5898 5898 5898 5898 5899 5899 5899 5899 5899 5900 5900 5900 5899 5900 5900 5899 5900 5899 5899 5899 5899 5899 5899 5899 5899 5899 5899
5915 5913 5915 5920 5918 5917 5917 5915 5913 5911 5910 5908 5907 5905 5903 5903 5902 5901 5899 5899 5899 5899 5898 5898 5899 5899 5899 5899 5899 5900 5900 5900 5900 5900 5900 5900 5900 5900 5900 5900 5900 5900 5900 5900 5900 5900 5900 5900 5900
5915 5916 5919 5922 5921 5921 5919 5917 5915 5914 5912 5910 5909 5907 5905 5904 5903 5902 5901 5900 5900 5899 5899 5899 5899 5899 5899 5899 5900 5900 5900 5900 5901 5901 5901 5901 5901 5901 5901 5901 5901 5901 5901 5901 5901 5901 5901 5901 5901
5918 5918 5923 5923 5924 5924 5922 5920 5918 5916 5914 5912 5910 5909 5907 5905 5904 5903 5902 5901 5900 5900 5899 5899 5898 5899 5899 5899 5900 5900 5900 5901 5901 5901 5901 5901 5902 5902 5902 5901 5901 5901 5901 5901 5901 5901 5901 5901 5901
5920 5921 5925 5927 5926 5925 5924 5922 5920 5918 5916 5915 5912 5910 5908 5907 5905 5904 5903 5901 5901 5900 5899 5898 5898 5898 5898 5899 5899 5899 5900 5900 5901 5901 5901 5901 5902 5902 5902 5902 5902 5902 5902 5902 5902 5902 5902 5902 5902
5922 5924 5926 5929 5929 5928 5926 5924 5921 5919 5918 5916 5914 5912 5909 5908 5906 5905 5903 5902 5901 5900 5899 5898 5898 5898 5898 5898 5899 5899 5899 5900 5901 5901 5901 5902 5902 5902 5902 5902 5902 5903 5903 5903 5902 5902 5902 5902 5903
5926 5927 5929 5930 5931 5929 5927 5925 5923 5921 5918 5917 5916 5913 5911 5909 5907 5906 5904 5902 5901 5900 5899 5898 5898 5897 5898 5898 5898 5898 5899 5900 5900 5901 5901 5902 5902 5902 5903 5903 5903 5903 5903 5903 5903 5903 5903 5903 5904
5928 5929 5931 5932 5931 5930 5928 5926 5924 5922 5917 5916 5916 5914 5912 5910 5908 5907 5905 5903 5901 5900 5899 5898 5898 5897 5897 5897 5897 5898 5898 5899 5900 5900 5901 5901 5902 5902 5903 5903 5903 5904 5904 5904 5904 5904 5904 5904 5904
5930 5932 5932 5933 5932 5930 5929 5928 5926 5923 5920 5918 5917 5915 5913 5911 5909 5907 5905 5903 5901 5900 5899 5898 5897 5897 5897 5897 5897 5897 5898 5898 5899 5899 5900 5901 5902 5902 5903 5903 5904 5904 5904 5905 5905 5905 5905 5905 5905
5931 5932 5932 5933 5931 5930 5929 5928 5927 5925 5922 5919 5917 5915 5914 5912 5910 5907 5905 5903 5901 5900 5899 5898 5897 5896 5896 5896 5896 5896 5897 5897 5898 5899 5900 5901 5901 5902 5903 5903 5904 5904 5905 5905 5905 5906 5906 5906 5906
5932 5932 5933 5932 5932 5931 5929 5928 5927 5926 5923 5920 5918 5916 5914 5912 5910 5907 5905 5903 5901 5900 5899 5897 5897 5896 5895 5895 5895 5895 5896 5896 5897 5898 5899 5900 5901 5902 5902 5903 5904 5904 5905 5905 5906 5906 5906 5907 5907
5932 5932 5933 5932 5932 5931 5930 5928 5926 5925 5923 5920 5919 5916 5914 5912 5910 5907 5905 5903 5901 5900 5899 5897 5897 5896 5895 5894 5894 5894 5895 5895 5896 5898 5899 5900 5901 5901 5902 5903 5904 5904 5905 5905 5906 5906 5907 5907 5907
5931 5932 5932 5933 5932 5932 5931 5929 5927 5925 5923 5920 5918 5916 5914 5912 5910 5908 5905 5903 5901 5899 5898 5897 5896 5895 5894 5893 5893 5893 5894 5895 5896 5897 5898 5900 5901 5901 5902 5903 5904 5904 5905 5906 5906 5907 5907 5907 5908
5931 5932 5933 5934 5933 5932 5932 5929 5927 5925 5923 5921 5918 5916 5914 5912 5910 5907 5905 5903 5901 5899 5897 5896 5895 5894 5893 5892 5892 5892 5893 5894 5895 5897 5898 5899 5900 5901 5902 5903 5904 5904 5905 5906 5906 5907 5907 5908 5908
5932 5934 5936 5937 5934 5932 5932 5930 5928 5925 5924 5921 5918 5916 5914 5912 5910 5907 5905 5902 5900 5898 5896 5894 5893 5892 5892 5891 5891 5892 5893 5894 5895 5896 5897 5898 5900 5900 5902 5903 5903 5904 5905 5906 5906 5906 5907 5907 5908
5933 5936 5938 5937 5935 5932 5932 5930 5929 5926 5924 5921 5919 5916 5914 5912 5910 5907 5904 5902 5899 5897 5894 5893 5891 5891 5890 5890 5890 5891 5892 5893 5895 5896 5897 5898 5899 5900 5901 5902 5903 5903 5904 5905 5906 5906 5907 5907 5908
5931 5933 5934 5935 5933 5931 5931 5930 5928 5925 5923 5920 5918 5916 5914 5912 5910 5907 5904 5901 5898 5896 5893 5891 5890 5889 5889 5889 5889 5890 5892 5893 5894 5895 5896 5897 5898 5899 5900 5901 5902 5903 5904 5904 5905 5906 5906 5907 5907
5929 5931 5933 5933 5932 5930 5930 5929 5927 5925 5923 5921 5918 5915 5913 5911 5909 5906 5904 5901 5898 5895 5893 5890 5888 5887 5887 5888 5888 5889 5891 5892 5893 5894 5895 5896 5897 5898 5899 5900 5901 5902 5903 5904 5904 5905 5905 5906 5906
5927 5929 5930 5930 5930 5929 5929 5928 5926 5922 5921 5919 5917 5914 5912 5910 5908 5906 5903 5900 5897 5894 5892 5889 5887 5886 5886 5886 5887 5889 5890 5891 5892 5893 5894 5895 5896 5897 5898 5899 5900 5901 5902 5903 5903 5904 5904 5904 5905
5926 5928 5928 5928 5928 5928 5930 5928 5925 5921 5919 5918 5916 5913 5911 5909 5906 5904 5902 5899 5897 5894 5891 5888 5886 5885 5884 5885 5886 5888 5889 5890 5891 5892 5893 5894 5895 5896 5897 5898 5899 5900 5901 5901 5902 5902 5902 5903 5903
5923 5925 5925 5926 5926 5926 5927 5927 5926 5921 5919 5916 5915 5913 5910 5908 5906 5904 5902 5899 5896 5893 5891 5888 5887 5885 5885 5885 5886 5887 5888 5889 5890 5891 5892 5893 5894 5894 5895 5896 5897 5898 5899 5899 5900 5900 5901 5901 5901
5920 5922 5923 5924 5924 5925 5925 5926 5924 5920 5918 5916 5914 5912 5910 5907 5905 5903 5901 5898 5895 5893 5891 5889 5887 5886 5885 5885 5886 5887 5887 5888 5889 5890 5891 5891 5892 5893 5893 5894 5895 5896 5897 5898 5898 5898 5898 5899 5899
5918 5920 5922 5922 5923 5922 5923 5924 5922 5919 5918 5916 5913 5911 5909 5906 5904 5902 5899 5897 5895 5893 5891 5889 5887 5886 5885 5885 5885 5886 5887 5887 5888 5889 5890 5890 5891 5891 5892 5893 5893 5894 5895 5895 5896 5896 5896 5896 5897
5915 5918 5920 5922 5923 5922 5920 5920 5918 5917 5915 5914 5912 5909 5907 5905 5903 5901 5898 5896 5894 5892 5890 5888 5887 5886 5886 5885 5885 5886 5886 5887 5887 5888 5888 5889 5889 5889 5890 5891 5891 5892 5892 5893 5893 5893 5893 5894 5894
5912 5914 5918 5920 5920 5920 5921 5919 5915 5914 5913 5911 5910 5908 5905 5903 5901 5899 5897 5895 5893 5892 5889 5888 5887 5886 5886 5885 5885 5885 5885 5886 5886 5887 5887 5887 5888 5888 5888 5889 5889 5890 5890 5890 5890 5890 5890 5891 5891
5909 5912 5914 5916 5917 5918 5917 5915 5911 5910 5910 5909 5907 5906 5904 5902 5900 5899 5896 5895 5893 5891 5890 5888 5887 5886 5885 5884 5884 5884 5884 5885 5885 5886 5886 5886 5886 5886 5886 5886 5887 5887 5887 5887 5887 5887 5887 5887 5887
5905 5908 5909 5912 5914 5916 5915 5913 5908 5908 5907 5907 5905 5904 5903 5901 5899 5897 5895 5894 5892 5891 5889 5888 5887 5886 5885 5884 5883 5883 5883 5883 5884 5884 5884 5884 5884 5884 5884 5884 5884 5884 5884 5884 5884 5883 5883 5883 5883
5901 5903 5906 5908 5910 5911 5912 5912 5905 5905 5904 5905 5903 5902 5901 5900 5898 5896 5894 5892 5892 5891 5889 5888 5887 5886 5885 5884 5883 5882 5882 5882 5882 5882 5882 5882 5882 5882 5882 5882 5882 5881 5881 5881 5880 5880 5879 5879 5878